User: anonymous
Location: Lamoine Observatory
(44.4551°N, 68.3470°W)
Time: 21:29:47
(UTC-04:00)
Language:

Cosmos 1674 Rocket - Orbit

View from above orbital plane
View from above orbital plane
View from above satellite
View from above satellite

Ground track
Ground track

The orbit data is extracted from the following two-line orbital elements,

1 15945U 85069B   14202.15785442  .00000140  00000-0  14075-4 0  7069
2 15945 082.5258 047.3485 0020319 181.7671 318.3963 14.83367561563554
Epoch (UTC): 21 July 2014 03:47:18
Eccentricity: 0.0020319
inclination: 82.5258°
perigee height: 604 km
apogee height: 633 km
right ascension of ascending node: 47.3485°
argument of perigee: 181.7671°
revolutions per day: 14.83367561
mean anomaly at epoch: 318.3963°
orbit number at epoch: 56355

The dashed part of the orbit path shows where the satellite is in the earth's shadow,  

DLR